[[{"header":{"parameterUnit":"m.s-1","parameterCategory":1,"la1":30.2991,"la2":30.254,"lo1":-89.0895,"lo2":-89.0444,"dy":0.0017,"dx":0.0017,"nx":28,"ny":28,"refTime":"2025-03-02T09:00:00:Z","depth":0,"parameterNumber":2,"parameterNumberName":"U-component_of_WINDS"},"data":[0,0,0,0,0,0,0,0,0,0,0,0,0,0,0,0,0,0,0,0,0,0,0,0,0,0,0,0,0,0,0,0,0,0,0,0,0,0,0,0,0,0,0,0,0,0,0,0,0,0,0,0,0,0,0,0,0,0,-5.6473,-5.6474,0,-5.6613,-5.6614,-5.6616,-5.6594,-5.6591,-5.6589,-5.6587,-5.6728,-5.6734,-5.6739,0,0,0,0,0,0,0,0,0,0,0,0,0,-5.6186,-5.6191,-5.6473,-5.6475,-5.6476,-5.6612,-5.6614,-5.6616,-5.6594,-5.6591,-5.6588,-5.6586,-5.6726,-5.6733,-5.674,0,0,0,0,0,0,0,0,0,0,0,0,0,-5.6316,-5.6193,-5.6472,-5.6482,-5.6484,-5.6612,-5.6614,-5.6617,-5.6595,-5.6591,-5.6588,-5.6584,-5.6723,-5.6732,-5.6741,-5.6868,0,0,-5.6768,-5.6772,0,0,0,0,0,0,0,0,-5.6309,-5.6327,-5.6479,-5.6481,-5.6484,-5.6582,-5.6565,-5.6701,-5.6596,-5.6553,-5.6587,-5.6582,-5.6682,-5.6694,-5.6728,-5.6875,-5.6881,-5.6769,-5.6775,-5.6779,-5.6781,0,0,0,0,0,0,0,-5.63,-5.6321,-5.6528,-5.6481,-5.6484,-5.6479,-5.6493,-5.6591,-5.6636,-5.6556,-5.6555,-5.6572,-5.6683,-5.672,-5.6731,-5.6883,-5.6769,-5.6777,-5.6782,-5.6786,-5.7141,-5.7145,0,0,0,0,0,0,-5.6289,-5.6313,-5.6524,-5.6532,-5.6386,-5.6487,-5.6503,-5.6554,-5.6635,-5.6643,-5.6575,-5.657,-5.6706,-5.6721,-5.6736,-5.689,-5.6778,-5.6787,-5.6792,-5.7137,-5.7142,-5.7146,0,0,0,0,0,0,-5.6282,-5.6308,-5.6518,-5.6423,-5.6449,-5.6495,-5.6553,-5.6559,-5.6596,-5.6649,-5.6656,-5.6604,-5.6704,-5.6724,-5.6836,-5.6894,-5.6791,-5.6799,-5.7132,-5.7138,-5.7144,-5.7198,0,0,0,0,0,0,-5.6274,-5.6305,-5.6354,-5.6424,-5.6454,-5.6615,-5.6557,-5.6564,-5.6611,-5.6607,-5.6678,-5.6687,-5.6703,-5.6822,-5.6845,-5.6905,-5.6806,-5.7127,-5.7135,-5.7142,-5.7191,-5.7205,-5.7217,0,0,0,0,0,-5.6264,-5.6363,-5.6357,-5.6382,-5.6516,-5.6619,-5.6636,-5.6653,-5.6616,-5.6665,-5.67,-5.6684,-5.6885,-5.6834,-5.6859,-5.6923,-5.7123,-5.7133,-5.7141,-5.7185,-5.7202,-5.7217,0,0,0,0,0,0,-5.6298,-5.6373,-5.6366,-5.6491,-5.6549,-5.6615,-5.6677,-5.6671,-5.6739,-5.6732,-5.675,-5.6766,-5.688,-5.6913,-5.6855,-5.705,-5.6999,-5.7013,-5.7024,-5.704,-5.7053,-5.7042,-5.6814,0,0,0,0,0,-5.6321,-5.6398,-5.6459,-5.6563,-5.6593,-5.663,-5.6676,-5.6684,-5.6744,-5.6768,-5.6811,-5.6869,-5.6946,-5.6995,-5.7068,-5.7197,-5.7211,-5.7253,-5.7266,-5.7276,-5.7288,-5.7358,-5.7377,-5.7176,-5.7176,-5.7176,0,0,-5.6367,-5.6417,-5.6465,-5.6572,-5.6617,-5.6697,-5.6651,-5.6737,-5.6796,-5.6781,-5.6889,-5.6923,-5.699,-5.711,-5.7166,-5.7141,-5.7347,-5.7288,-5.7296,-5.7302,-5.7369,-5.7388,-5.7405,-5.7182,-5.7181,-5.718,0,0,-5.6491,-5.6538,-5.663,-5.6677,-5.6747,-5.6772,-5.6794,-5.6862,-5.6884,-5.6993,-5.6984,-5.7055,-5.7186,-5.7233,-5.7275,-5.742,-5.7408,-5.7444,-5.751,-5.7578,-5.7594,-5.7608,-5.7659,-5.7677,-5.7456,-5.7456,-5.7456,0,-5.654,-5.6659,-5.6678,-5.6765,-5.6812,-5.6804,-5.6897,-5.6942,-5.7032,-5.7065,-5.7037,-5.7202,-5.7246,-5.7377,-5.7413,-5.7448,-5.7473,-5.7434,-5.7591,-5.7605,-5.7618,-5.7667,-5.7686,-5.7459,-5.7459,-5.7459,-5.7458,0,-5.6715,-5.6798,-5.6864,-5.6952,-5.7007,-5.7096,-5.7128,-5.7181,-5.7186,-5.7213,-5.7325,-5.7378,-5.7462,-5.7494,-5.7499,-5.7627,-5.761,-5.7587,-5.7535,-5.7641,-5.7686,-5.7705,-5.7465,-5.7463,-5.7462,-5.7461,0,0,-5.6862,-5.6961,-5.6984,-5.7024,-5.7102,-5.7167,-5.7257,-5.734,-5.7384,-5.7448,-5.7523,-5.7635,-5.7614,-5.7661,-5.7672,-5.7732,-5.7842,-5.7701,-5.7703,-5.7724,-5.7985,-5.8,-5.8022,-5.7836,-5.784,-5.7842,-5.7979,0,-5.6993,-5.7151,-5.7171,-5.7311,-5.7388,-5.7383,-5.7461,-5.7517,-5.7546,-5.7615,-5.7647,-5.7726,-5.7693,-5.7721,-5.7781,-5.7816,-5.7894,-5.7807,-5.7904,-5.7908,-5.7885,-5.8046,-5.8062,-5.8188,-5.7997,-5.8,-5.8002,0,-5.7165,-5.7234,-5.7382,-5.745,-5.7483,-5.7553,-5.7631,-5.7698,-5.7761,-5.7778,-5.7832,-5.7835,-5.7928,-5.7875,-5.8002,-5.7942,-5.7984,-5.8007,-5.8013,-5.802,-5.7959,-5.8056,-5.8229,-5.8247,-5.8031,-5.8029,-5.8027,0,-5.7256,-5.7386,-5.7491,-5.7526,-5.7608,-5.7657,-5.7694,-5.7755,-5.7803,-5.7872,-5.7903,-5.7982,-5.8024,-5.8084,-5.8108,-5.8068,-5.8234,-5.8183,-5.8249,-5.8249,-5.8282,-5.8279,-5.8462,-5.8313,-5.8313,-5.8312,-5.8312,0,-5.7398,-5.7488,-5.7533,-5.7597,-5.7699,-5.7722,-5.7821,-5.7856,-5.791,-5.7981,-5.7982,-5.8049,-5.8078,-5.8149,-5.8169,-5.827,-5.829,-5.8306,-5.8309,-5.8304,-5.8302,-5.833,-5.8321,-5.8317,-5.8316,-5.8315,-5.8314,0,-5.7515,-5.7549,-5.7663,-5.7732,-5.7752,-5.7823,-5.7882,-5.7945,-5.7974,-5.8064,-5.8086,-5.8132,-5.8216,-5.8247,-5.8349,-5.8362,-5.848,-5.8477,-5.8458,-5.8458,-5.8522,-5.8515,-5.8727,-5.8756,-5.859,-5.8591,-5.8593,0,-5.7602,-5.7672,-5.7749,-5.7797,-5.7835,-5.7913,-5.7963,-5.7988,-5.804,-5.8119,-5.8172,-5.8256,-5.8324,-5.8459,-5.85,-5.8579,-5.8577,-5.8646,-5.8588,-5.8581,-5.8576,-5.857,-5.8577,-5.8656,-5.8658,-5.8659,-5.866,0,-5.7753,-5.7767,-5.7839,-5.7918,-5.7978,-5.8041,-5.8102,-5.8141,-5.8176,-5.8235,-5.8321,-5.8374,-5.8479,-5.8562,-5.8643,-5.868,-5.8676,-5.8679,-5.8698,-5.8692,-5.8677,-5.8684,-5.8485,-5.8673,-5.8671,-5.867,-5.867,-5.8669,-5.7857,-5.7918,-5.7983,-5.8063,-5.8112,-5.817,-5.8232,-5.8269,-5.8342,-5.8429,-5.8441,-5.8533,-5.8596,-5.8704,-5.8745,-5.8818,-5.8799,-5.8827,-5.8833,-5.8839,-5.8843,-5.8668,-5.8833,-5.8832,-5.8832,-5.8832,-5.8832,0,-5.8007,-5.8048,-5.8122,-5.8208,-5.8272,-5.8264,-5.8332,-5.8385,-5.8467,-5.8526,-5.8594,-5.8693,-5.8774,-5.8823,-5.8904,-5.8953,-5.8953,-5.8973,-5.8968,-5.8977,-5.8856,-5.8831,-5.8971,-5.8971,-5.8971,-5.8971,-5.8971,-5.8971,-5.8092,-5.8195,-5.8216,-5.8344,-5.8385,-5.8476,-5.8515,-5.8568,-5.8616,-5.8726,-5.8794,-5.8826,-5.8881,-5.8967,-5.9041,-5.9053,-5.9082,-5.9104,-5.9114,-5.9,-5.8985,-5.8971,-5.8947,-5.911,-5.911,-5.9228,-5.9229,-5.923]},{"header":{"parameterUnit":"m.s-1","parameterCategory":1,"la1":30.2991,"la2":30.254,"lo1":-89.0895,"lo2":-89.0444,"dy":0.0017,"dx":0.0017,"nx":28,"ny":28,"refTime":"2025-03-02T09:00:00:Z","depth":0,"parameterNumber":3,"parameterNumberName":"V-component_of_WINDS"},"data":[0,0,0,0,0,0,0,0,0,0,0,0,0,0,0,0,0,0,0,0,0,0,0,0,0,0,0,0,0,0,0,0,0,0,0,0,0,0,0,0,0,0,0,0,0,0,0,0,0,0,0,0,0,0,0,0,0,0,4.6586,4.6587,0,4.6642,4.6642,4.6643,4.6577,4.6574,4.6572,4.6569,4.6622,4.6625,4.6629,0,0,0,0,0,0,0,0,0,0,0,0,0,4.6421,4.6425,4.6586,4.6587,4.6588,4.6641,4.6642,4.6643,4.6577,4.6574,4.6571,4.6568,4.6621,4.6625,4.6629,0,0,0,0,0,0,0,0,0,0,0,0,0,4.6486,4.6426,4.6586,4.6561,4.656,4.6641,4.6642,4.6643,4.6578,4.6574,4.657,4.6567,4.6619,4.6625,4.663,4.6737,0,0,4.6647,4.6649,0,0,0,0,0,0,0,0,4.6483,4.6492,4.6564,4.6563,4.6562,4.6599,4.6603,4.6675,4.6579,4.6571,4.6569,4.6565,4.6617,4.6622,4.6641,4.674,4.6742,4.6647,4.6651,4.6653,4.6655,0,0,0,0,0,0,0,4.6478,4.649,4.6608,4.6566,4.6564,4.6547,4.6552,4.6616,4.6613,4.6571,4.6567,4.6574,4.6615,4.6635,4.6641,4.6743,4.6647,4.6652,4.6655,4.6658,4.6935,4.6938,0,0,0,0,0,0,4.6477,4.6486,4.6606,4.661,4.6513,4.6553,4.6558,4.659,4.6613,4.6613,4.6577,4.6571,4.6628,4.6635,4.6643,4.6771,4.6653,4.6658,4.6661,4.6931,4.6935,4.694,0,0,0,0,0,0,4.6474,4.6488,4.6604,4.6547,4.656,4.6559,4.6596,4.6593,4.6613,4.6617,4.6616,4.6599,4.6625,4.6635,4.6715,4.6772,4.6661,4.6666,4.6926,4.6932,4.6938,4.7028,0,0,0,0,0,0,4.6469,4.6488,4.6529,4.6548,4.6564,4.6676,4.6599,4.6597,4.6624,4.6616,4.6637,4.6637,4.6623,4.6707,4.6721,4.6778,4.667,4.6921,4.6929,4.6936,4.702,4.7037,4.7051,0,0,0,0,0,4.6464,4.6551,4.6531,4.6546,4.6615,4.668,4.6688,4.6672,4.6628,4.667,4.6673,4.6636,4.6764,4.6716,4.673,4.679,4.6917,4.6926,4.6935,4.7013,4.7033,4.7051,0,0,0,0,0,0,4.6536,4.6553,4.6531,4.6628,4.6653,4.6668,4.672,4.6693,4.673,4.6721,4.6698,4.6703,4.6789,4.6797,4.6744,4.6896,4.6833,4.6846,4.6888,4.6907,4.6922,4.6918,4.6675,0,0,0,0,0,4.6564,4.6616,4.6627,4.6711,4.6725,4.6721,4.6748,4.6733,4.6758,4.6768,4.6776,4.6801,4.6847,4.6877,4.6919,4.7021,4.7025,4.7069,4.7085,4.7097,4.7108,4.7165,4.7185,4.697,4.697,4.697,0,0,4.662,4.6636,4.6669,4.6726,4.6744,4.6798,4.673,4.6789,4.6829,4.6776,4.6853,4.6861,4.6886,4.6978,4.7019,4.6988,4.7169,4.7109,4.7119,4.7123,4.7176,4.7196,4.7214,4.6976,4.6975,4.6974,0,0,4.6751,4.6768,4.6841,4.6861,4.689,4.6887,4.6904,4.6925,4.6928,4.7005,4.6968,4.7014,4.7093,4.7113,4.7134,4.7276,4.7244,4.729,4.737,4.7425,4.7442,4.7457,4.7509,4.7527,4.7301,4.7301,4.7301,0,4.6817,4.6898,4.6881,4.6944,4.697,4.6927,4.7001,4.702,4.7061,4.708,4.7045,4.7144,4.7158,4.7256,4.7291,4.7308,4.7328,4.7287,4.7441,4.7456,4.747,4.7519,4.7538,4.7307,4.7306,4.7305,4.7305,0,4.6979,4.7036,4.7091,4.7134,4.7166,4.7234,4.7226,4.7261,4.7244,4.7245,4.7324,4.734,4.7386,4.7408,4.7391,4.7503,4.7483,4.7445,4.7381,4.7496,4.7542,4.756,4.7314,4.7312,4.7311,4.7309,0,0,4.7156,4.719,4.7211,4.7231,4.7261,4.7304,4.737,4.7416,4.7447,4.7477,4.7532,4.7601,4.7567,4.759,4.7575,4.7624,4.7737,4.758,4.758,4.7609,4.7863,4.7892,4.7914,4.7716,4.772,4.7722,4.7861,0,4.7288,4.7405,4.7392,4.7503,4.7556,4.7517,4.7575,4.7599,4.7602,4.7646,4.7648,4.7699,4.7649,4.7663,4.7709,4.7713,4.7787,4.7703,4.7767,4.777,4.7763,4.7938,4.7968,4.8099,4.7879,4.7882,4.7884,0,4.7458,4.7497,4.7614,4.7638,4.7659,4.7712,4.7754,4.7797,4.7824,4.7823,4.7851,4.7828,4.7895,4.783,4.7921,4.7864,4.789,4.7896,4.79,4.7906,4.7834,4.7949,4.8139,4.816,4.7912,4.7909,4.7907,0,4.7577,4.7658,4.7739,4.7757,4.7786,4.7824,4.7838,4.7862,4.7891,4.7928,4.7947,4.799,4.8014,4.8048,4.8038,4.7991,4.8132,4.8066,4.8133,4.8133,4.8164,4.8162,4.8362,4.8179,4.8179,4.8179,4.8178,0,4.7727,4.78,4.7793,4.7843,4.7924,4.7909,4.7989,4.7998,4.802,4.807,4.8038,4.8086,4.8069,4.8116,4.8108,4.8186,4.8196,4.8197,4.8194,4.8201,4.8201,4.8217,4.8208,4.8184,4.8183,4.8182,4.8181,0,4.7873,4.7872,4.7958,4.798,4.7987,4.8046,4.8064,4.8111,4.8112,4.8176,4.819,4.8192,4.8246,4.8239,4.8298,4.8293,4.839,4.8375,4.8381,4.8378,4.8446,4.844,4.8664,4.8693,4.8491,4.8493,4.8494,0,4.7969,4.8025,4.8054,4.8087,4.8104,4.8156,4.8187,4.8174,4.8207,4.8244,4.8286,4.8338,4.8378,4.8466,4.8471,4.8517,4.8504,4.8579,4.851,4.8516,4.8506,4.8504,4.8509,4.8593,4.8595,4.8597,4.8598,0,4.8141,4.8138,4.8184,4.8231,4.8269,4.8305,4.8337,4.8365,4.8355,4.8394,4.845,4.8481,4.8543,4.8595,4.8638,4.8651,4.8624,4.862,4.8638,4.8646,4.8647,4.8649,4.8419,4.8615,4.8613,4.8612,4.8611,4.8611,4.8266,4.8314,4.8343,4.8396,4.842,4.8451,4.8497,4.8505,4.8552,4.8602,4.8591,4.8655,4.8681,4.8737,4.8755,4.8804,4.8776,4.8802,4.8809,4.8815,4.8824,4.864,4.8811,4.8811,4.881,4.881,4.881,0,4.8436,4.8453,4.8503,4.855,4.8592,4.8564,4.8599,4.8636,4.8692,4.872,4.8762,4.8826,4.8877,4.8887,4.8935,4.8972,4.8961,4.8986,4.8983,4.8987,4.8845,4.8826,4.8994,4.8994,4.8994,4.8994,4.8994,4.8994,4.853,4.8612,4.8613,4.8706,4.8722,4.8785,4.8808,4.8836,4.8859,4.8934,4.8976,4.8983,4.9004,4.9054,4.9099,4.9101,4.912,4.915,4.9147,4.9015,4.8996,4.8979,4.896,4.9154,4.9154,4.9284,4.9285,4.9286]}]]